User: anonymous   Login
Location: Bottens
(46.6171°N, 6.6605°E)
Time: 07:36:11
(UTC+00:00)
Language:

AQUA - Orbit

View from above orbital plane
View from above orbital plane
View from above satellite
View from above satellite

Ground track
Ground track

The orbit data is extracted from the following two-line orbital elements,

1 27424U 02022A   21268.11858796  .00000188  00000-0  51879-4 0  9990
2 27424  98.2149 208.0388 0001501  42.6137 146.1153 14.57106758 31585
Epoch (UTC): 25 September 2021 02:50:46
Eccentricity: 0.0001501
inclination: 98.2149°
perigee height: 701 km
apogee height: 703 km
right ascension of ascending node: 208.0388°
argument of perigee: 42.6137°
revolutions per day: 14.57106758
mean anomaly at epoch: 146.1153°
orbit number at epoch: 3158

The dashed part of the orbit path shows where the satellite is in the earth's shadow,  

DLR